Nuiqsut, AK

5:29 PM AKDT on October 20, 2017 (GMT -0800)
Nuiqsut

Weather History for PAQT - January, 2014

Change the Weather History Date:

Wednesday, January 1, 2014

  Actual Average (PAKU) Record (PAKU)
Temperature  
Mean Temperature -2 °F -  
Max Temperature 3 °F -4 °F 35 °F (2017)
Min Temperature -6 °F -14 °F -46 °F (1984)
Degree Days  
Heating Degree Days 66    
Moisture  
Dew Point -3 °F    
Average Humidity 91    
Maximum Humidity 100    
Minimum Humidity 87    
Precipitation  
Precipitation 0.00 in - - ()
Sea Level Pressure  
Sea Level Pressure 29.66 in    
Wind  
Wind Speed 22 mph (ENE)    
Max Wind Speed 33 mph    
Max Gust Speed 38 mph    
Visibility 2 miles    
Events Fog , Rain , Snow    
Averages and records for this station are not official NWS values.
T = Trace of Precipitation, MM = Missing Value Source: NWS Daily Summary

Daily Weather History Graph

Daily Weather History Graph

Search for Another Location

Airport or City:

Trip Planner

Search our weather history database for the weather conditions in past years. The results will help you decide how hot, cold, wet, or windy it might be!

Date:

Astronomy

Dec. 31, 1969 Rise Set
Actual Time Sun does not rise Sun does not rise
Civil Twilight 10:57 AM AKST 3:18 PM AKST
Nautical Twilight 9:10 AM AKST 5:05 PM AKST
Astronomical Twilight 7:50 AM AKST 6:25 PM AKST
Moon 11:42 AM AKST (1/1) 3:36 PM AKST (1/1)
Length of Visible Light 4h 21m
Length of Day
0h 00m
New Moon, 0% of the Moon is Illuminated
Jan 1
New Moon
Jan 7
First Quarter
Jan 15
Full
Jan 23
Last Quarter
Jan 30
New

Hourly Weather History & Observations

Time (AKST) Temp. Windchill Dew Point Humidity Pressure Visibility Wind Dir Wind Speed Gust Speed Precip Events Conditions
12:53 AM -6.0 °F -31.7 °F -8.0 °F 91% 29.84 in 6.0 mi ENE 24.2 mph - N/A   Clear
1:53 AM -2.9 °F -30.2 °F -6.0 °F 87% 29.82 in 2.5 mi East 31.1 mph - N/A   Clear
2:04 AM -2.9 °F -27.2 °F -6.0 °F 87% 29.82 in 5.0 mi East 23.0 mph - N/A   Clear
2:53 AM -5.1 °F -25.9 °F -7.1 °F 91% 29.81 in 4.0 mi ENE 15.0 mph - N/A   Clear
3:05 AM -6.0 °F -27.0 °F -9.0 °F 87% 29.80 in 2.5 mi ENE 15.0 mph - N/A   Clear
3:13 AM -6.0 °F -28.4 °F -9.0 °F 87% 29.79 in 3.0 mi ENE 17.3 mph - N/A   Clear
3:27 AM -6.0 °F -27.7 °F -8.0 °F 91% 29.78 in 2.5 mi ENE 16.1 mph - N/A   Partly Cloudy
3:38 AM -6.0 °F -28.4 °F -9.0 °F 87% 29.78 in 1.8 mi ENE 17.3 mph - N/A   Mostly Cloudy
3:53 AM -6.0 °F -27.0 °F -8.0 °F 91% 29.78 in 1.2 mi ENE 15.0 mph - N/A   Overcast
4:53 AM -5.1 °F -29.5 °F -8.0 °F 87% 29.75 in 1.8 mi ENE 21.9 mph - N/A   Overcast
5:46 AM -4.0 °F -28.1 °F -6.0 °F 91% 29.72 in 2.5 mi ENE 21.9 mph - N/A   Mostly Cloudy
5:51 AM -4.0 °F -28.1 °F -5.8 °F 92% 29.73 in 3.0 mi ENE 21.9 mph - N/A   Scattered Clouds
5:53 AM -4.0 °F -27.6 °F -6.0 °F 91% 29.73 in 3.0 mi ENE 20.7 mph - N/A   Scattered Clouds
6:53 AM -2.9 °F -25.0 °F -6.0 °F 87% 29.72 in 4.0 mi East 18.4 mph - N/A   Clear
7:15 AM -5.1 °F -25.9 °F -7.1 °F 91% 29.71 in 4.0 mi East 15.0 mph - N/A   Scattered Clouds
7:24 AM -5.1 °F -25.1 °F -7.1 °F 91% 29.70 in 3.0 mi East 13.8 mph - N/A   Mostly Cloudy
7:33 AM -5.1 °F -25.9 °F -7.1 °F 91% 29.70 in 2.0 mi East 15.0 mph - N/A   Overcast
7:41 AM -5.1 °F -25.1 °F -7.1 °F 91% 29.70 in 1.2 mi ENE 13.8 mph - N/A   Overcast
7:53 AM -4.0 °F -25.2 °F -7.1 °F 87% 29.70 in 2.0 mi ENE 16.1 mph - N/A   Mostly Cloudy
8:02 AM -5.1 °F -25.9 °F -7.1 °F 91% 29.69 in 3.0 mi ENE 15.0 mph - N/A   Scattered Clouds
8:09 AM -5.1 °F -25.9 °F -7.1 °F 91% 29.69 in 2.5 mi ENE 15.0 mph - N/A   Mostly Cloudy
8:23 AM -5.1 °F -25.9 °F -7.1 °F 91% 29.68 in 1.8 mi ENE 15.0 mph - N/A   Mostly Cloudy
8:53 AM -4.0 °F -25.8 °F -6.0 °F 91% 29.67 in 1.5 mi ENE 17.3 mph - N/A   Overcast
9:53 AM -0.9 °F -23.5 °F -2.9 °F 91% 29.66 in 1.5 mi ENE 20.7 mph - N/A   Overcast
10:13 AM -0.9 °F -21.9 °F -2.9 °F 91% 29.66 in 2.5 mi ENE 17.3 mph - N/A   Mostly Cloudy
10:29 AM -0.9 °F -22.4 °F -2.9 °F 91% 29.66 in 1.2 mi ENE 18.4 mph - N/A   Overcast
10:53 AM -0.9 °F -21.2 °F -4.0 °F 87% 29.66 in 1.5 mi East 16.1 mph - N/A   Overcast
11:53 AM -0.0 °F -22.4 °F -2.9 °F 88% 29.64 in 1.2 mi ENE 20.7 mph - N/A   Overcast
12:08 PM -0.0 °F -22.9 °F -2.0 °F 91% 29.63 in 0.8 mi ENE 21.9 mph - N/A Snow Blowing Snow
12:22 PM -0.0 °F -22.9 °F -0.9 °F 96% 29.62 in 1.0 mi ENE 21.9 mph - N/A Snow Blowing Snow
12:53 PM -0.0 °F -19.4 °F -2.0 °F 91% 29.62 in 1.2 mi ENE 15.0 mph - N/A Snow Blowing Snow
1:09 PM -0.9 °F -20.6 °F -2.9 °F 91% 29.62 in 2.0 mi ENE 15.0 mph - 0.00 in Rain Light Freezing Rain
1:20 PM -0.0 °F -22.4 °F -2.0 °F 91% 29.62 in 2.5 mi East 20.7 mph - 0.00 in Snow Blowing Snow
1:22 PM 1.0 °F -21.9 °F -2.0 °F 87% 29.62 in 1.8 mi East 23.0 mph - 0.00 in Rain Light Freezing Rain
1:33 PM 1.0 °F -24.0 °F -0.9 °F 91% 29.62 in 0.5 mi East 28.8 mph - 0.00 in Fog , Rain Light Freezing Rain
1:42 PM 1.0 °F -24.4 °F -0.9 °F 91% 29.62 in 0.5 mi East 29.9 mph - 0.00 in Fog , Snow Light Freezing Fog
1:53 PM 1.0 °F -25.1 °F -0.9 °F 91% 29.62 in 0.5 mi East 32.2 mph - 0.00 in Fog , Snow Light Freezing Fog
2:17 PM -0.0 °F -23.8 °F -2.0 °F 91% 29.61 in 1.8 mi East 24.2 mph - N/A Snow Blowing Snow
2:21 PM -0.0 °F -24.3 °F -2.0 °F 91% 29.61 in 2.0 mi East 25.3 mph - N/A   Scattered Clouds
2:37 PM -0.0 °F -23.8 °F -2.0 °F 91% 29.61 in 2.5 mi East 24.2 mph - N/A   Mostly Cloudy
2:53 PM -0.0 °F -25.1 °F -0.9 °F 96% 29.60 in 1.5 mi ENE 27.6 mph - N/A Snow Blowing Snow
3:12 PM 1.0 °F -22.8 °F -0.9 °F 91% 29.60 in 1.8 mi East 25.3 mph - N/A Snow Blowing Snow
3:19 PM 1.0 °F -22.8 °F -0.9 °F 91% 29.60 in 3.0 mi East 25.3 mph - N/A Snow Blowing Snow
3:40 PM 1.9 °F -22.4 °F -0.0 °F 91% 29.59 in 1.8 mi East 27.6 mph - N/A Snow Blowing Snow
3:53 PM 1.9 °F -22.4 °F -0.0 °F 91% 29.60 in 1.8 mi East 27.6 mph - N/A Snow Blowing Snow
4:01 PM 1.9 °F -22.4 °F -0.0 °F 91% 29.59 in 2.0 mi East 27.6 mph - N/A Snow Blowing Snow
4:17 PM 1.9 °F -21.2 °F -0.0 °F 91% 29.59 in 3.0 mi East 24.2 mph - N/A Snow Blowing Snow
4:31 PM 1.0 °F -23.2 °F -0.9 °F 91% 29.59 in 2.0 mi East 26.5 mph - N/A Snow Blowing Snow
4:50 PM 1.4 °F -22.3 °F -0.4 °F 92% 29.60 in 4.0 mi East 25.3 mph - N/A   Clear
4:53 PM 1.9 °F -22.4 °F -0.0 °F 91% 29.60 in 4.0 mi East 27.6 mph - N/A   Clear
5:03 PM 1.9 °F -21.6 °F -0.0 °F 91% 29.60 in 1.8 mi East 25.3 mph - N/A Snow Blowing Snow
5:13 PM 1.9 °F -21.6 °F -0.0 °F 91% 29.60 in 2.5 mi East 25.3 mph - N/A   Clear
5:29 PM 3.0 °F -21.0 °F 1.0 °F 91% 29.60 in 1.0 mi East 27.6 mph - N/A Snow Blowing Snow
5:43 PM 1.9 °F -21.6 °F 1.0 °F 96% 29.61 in 1.5 mi ENE 25.3 mph - N/A Snow Blowing Snow
5:49 PM 1.4 °F -19.9 °F 1.4 °F 100% 29.61 in 3.0 mi ENE 19.6 mph - N/A   Partly Cloudy
5:53 PM 1.9 °F -18.1 °F -0.0 °F 91% 29.61 in 4.0 mi ENE 17.3 mph - N/A   Partly Cloudy
6:19 PM 1.9 °F -20.7 °F -0.9 °F 88% 29.61 in 2.0 mi ENE 23.0 mph - N/A   Mostly Cloudy
6:26 PM 1.9 °F -20.2 °F -0.9 °F 88% 29.61 in 1.8 mi ENE 21.9 mph - N/A   Mostly Cloudy
6:49 PM 1.4 °F -22.7 °F -0.4 °F 92% 29.61 in 0.8 mi ENE 26.5 mph - N/A Snow Blowing Snow
6:53 PM 1.9 °F -22.4 °F -0.0 °F 91% 29.61 in 0.8 mi ENE 27.6 mph - N/A Snow Blowing Snow
7:14 PM 1.9 °F -22.8 °F 1.0 °F 96% 29.61 in 1.0 mi ENE 28.8 mph - N/A Snow Blowing Snow
7:24 PM 1.9 °F -22.4 °F 1.0 °F 96% 29.62 in 0.5 mi ENE 27.6 mph - N/A Fog , Snow Light Freezing Fog
7:37 PM 1.9 °F -22.0 °F 1.0 °F 96% 29.62 in 0.5 mi ENE 26.5 mph - N/A Fog , Snow Light Freezing Fog
7:53 PM 1.9 °F -21.6 °F 1.0 °F 96% 29.63 in 0.8 mi ENE 25.3 mph - N/A Snow Blowing Snow
8:22 PM 1.9 °F -21.6 °F 1.0 °F 96% 29.64 in 1.2 mi ENE 25.3 mph - N/A Snow Blowing Snow
8:53 PM 1.0 °F -22.8 °F -0.0 °F 95% 29.65 in 3.0 mi ENE 25.3 mph - N/A   Mostly Cloudy
9:04 PM 1.0 °F -23.2 °F -0.9 °F 91% 29.64 in 4.0 mi ENE 26.5 mph - N/A   Scattered Clouds
9:17 PM 1.9 °F -23.6 °F -0.9 °F 88% 29.64 in 1.8 mi ENE 31.1 mph - N/A Snow Blowing Snow
9:39 PM 1.0 °F -24.0 °F -0.0 °F 95% 29.65 in 1.0 mi ENE 28.8 mph - N/A Snow Blowing Snow
9:48 PM 1.4 °F -25.0 °F -0.4 °F 92% 29.64 in 0.8 mi ENE 33.4 mph 38.0 mph N/A Snow Blowing Snow
9:53 PM 1.0 °F -24.8 °F -0.0 °F 95% 29.66 in 0.8 mi ENE 31.1 mph - N/A Snow Blowing Snow
9:56 PM 1.0 °F -24.0 °F -0.0 °F 95% 29.66 in 1.2 mi ENE 28.8 mph - N/A Snow Blowing Snow
10:04 PM 1.0 °F -23.6 °F -0.0 °F 95% 29.66 in 3.0 mi ENE 27.6 mph - N/A Snow Blowing Snow
10:15 PM 1.0 °F -23.6 °F -0.9 °F 91% 29.66 in 2.0 mi ENE 27.6 mph - N/A Snow Blowing Snow
10:30 PM 1.0 °F -22.8 °F -0.9 °F 91% 29.67 in 3.0 mi ENE 25.3 mph - N/A   Clear
10:39 PM 1.0 °F -21.9 °F -0.9 °F 91% 29.68 in 2.0 mi ENE 23.0 mph - N/A   Partly Cloudy
10:53 PM 1.0 °F -21.9 °F -0.9 °F 91% 29.69 in 2.5 mi ENE 23.0 mph - N/A   Clear
11:12 PM 1.0 °F -21.9 °F -2.0 °F 87% 29.70 in 3.0 mi East 23.0 mph - N/A   Clear
11:53 PM -0.0 °F -21.8 °F -2.0 °F 91% 29.73 in 4.0 mi ENE 19.6 mph - N/A Snow Blowing Snow